User: anonymous   Login
Location: Amarillo Post Office Jordan Station
(35.1907°N, 101.9342°W)
Time: 20:23:42
(UTC+00:00)
Language:

COSMO-SKYMED 1 - Orbit

View from above orbital plane
View from above orbital plane
View from above satellite
View from above satellite

Ground track
Ground track

The orbit data is extracted from the following two-line orbital elements,

1 31598U 07023A   21127.05579881 -.00000252  00000-0 -25041-4 0  9991
2 31598  97.8904 311.5360 0001519  87.1703 272.9687 14.82150813752767
Epoch (UTC): 07 May 2021 01:20:21
Eccentricity: 0.0001519
inclination: 97.8904°
perigee height: 621 km
apogee height: 623 km
right ascension of ascending node: 311.5360°
argument of perigee: 87.1703°
revolutions per day: 14.82150813
mean anomaly at epoch: 272.9687°
orbit number at epoch: 75276

The dashed part of the orbit path shows where the satellite is in the earth's shadow,  

DLR